MAPLE82 KBTV-KNTU

Flight info

Callsign MAPLE82
Flight time 1h 10m
Altitude 25000
Route KBTV BTV1 JASDU Q133 CAM DCT WEETS DCT STW DCT LANNA DCT RBV DCT GREIN Q133 MGERK DCT TRPOD DCT JAMIE DCT 372045N0755954W DCT ELMER DCT KNTU
Aircraft F35/M-DILORT/L

Departure

Time 2026-04-21 19:24
Airport Patrick Leahy Burlington International Airport (KBTV)

Arrival

Time 2026-04-21 20:34
Airport Oceana Naval Air Station (KNTU)
Time Latitude Longitude Altitude Speed Heading
2026-04-21 18:46 44.47298 -73.14756 320 ft 0 kts 220°
2026-04-21 19:15 44.47284 -73.14772 319 ft 6 kts 220°
2026-04-21 19:16 44.47282 -73.14775 319 ft 0 kts 220°
2026-04-21 19:16 44.47259 -73.14815 319 ft 5 kts 263°
2026-04-21 19:16 44.47275 -73.14856 319 ft 5 kts 309°
2026-04-21 19:17 44.47335 -73.14952 320 ft 7 kts 323°
2026-04-21 19:17 44.47353 -73.14933 319 ft 3 kts 94°
2026-04-21 19:17 44.47354 -73.14910 319 ft 0 kts 86°
2026-04-21 19:19 44.47354 -73.14909 319 ft 2 kts 86°
2026-04-21 19:19 44.47354 -73.14885 320 ft 9 kts 96°
2026-04-21 19:19 44.47305 -73.14846 320 ft 11 kts 214°
2026-04-21 19:20 44.47337 -73.14954 320 ft 18 kts 311°
2026-04-21 19:20 44.47439 -73.15114 319 ft 20 kts 311°
2026-04-21 19:20 44.47530 -73.15262 321 ft 23 kts 310°
2026-04-21 19:20 44.47635 -73.15441 318 ft 24 kts 309°
2026-04-21 19:21 44.47750 -73.15640 319 ft 23 kts 309°
2026-04-21 19:21 44.47844 -73.15805 318 ft 21 kts 307°
2026-04-21 19:21 44.47932 -73.15958 318 ft 20 kts 309°
2026-04-21 19:21 44.48022 -73.16112 317 ft 22 kts 304°
2026-04-21 19:22 44.48061 -73.16278 317 ft 13 kts 276°
2026-04-21 19:22 44.48067 -73.16346 317 ft 0 kts 278°
2026-04-21 19:22 44.48072 -73.16396 317 ft 5 kts 277°
2026-04-21 19:23 44.48074 -73.16409 317 ft 12 kts 277°
2026-04-21 19:23 44.48006 -73.16480 318 ft 27 kts 129°
2026-04-21 19:23 44.47463 -73.15603 348 ft 210 kts 130°
2026-04-21 19:23 44.46209 -73.13604 851 ft 306 kts 132°
2026-04-21 19:24 44.44777 -73.11349 2012 ft 311 kts 133°
2026-04-21 19:24 44.43313 -73.09124 3159 ft 302 kts 141°
2026-04-21 19:24 44.41538 -73.08122 3976 ft 282 kts 182°
2026-04-21 19:24 44.39327 -73.09038 4584 ft 396 kts 216°
2026-04-21 19:25 44.37588 -73.11954 5509 ft 401 kts 252°
2026-04-21 19:25 44.36688 -73.15819 6949 ft 416 kts 252°
2026-04-21 19:25 44.35265 -73.18874 8199 ft 357 kts 225°
2026-04-21 19:25 44.33128 -73.20424 9278 ft 362 kts 199°
2026-04-21 19:26 44.30477 -73.21582 10671 ft 435 kts 202°
2026-04-21 19:26 44.27516 -73.23172 12366 ft 473 kts 201°
2026-04-21 19:26 44.24258 -73.24190 14229 ft 460 kts 193°
2026-04-21 19:26 44.21363 -73.24936 15695 ft 411 kts 194°
2026-04-21 19:27 44.18585 -73.25660 17110 ft 405 kts 194°
2026-04-21 19:27 44.15780 -73.26414 18637 ft 420 kts 194°
2026-04-21 19:27 44.12744 -73.27122 19996 ft 463 kts 192°
2026-04-21 19:27 44.09430 -73.27811 21644 ft 498 kts 191°
2026-04-21 19:28 44.05877 -73.28536 23517 ft 534 kts 191°
2026-04-21 19:28 44.02194 -73.29306 24958 ft 537 kts 192°
2026-04-21 19:28 43.99731 -73.29846 25379 ft 544 kts 192°
2026-04-21 19:28 43.95989 -73.30673 25686 ft 542 kts 192°
2026-04-21 19:29 43.92258 -73.31490 25804 ft 545 kts 192°
2026-04-21 19:29 43.88568 -73.32298 25846 ft 519 kts 192°
2026-04-21 19:29 43.85058 -73.33082 25853 ft 514 kts 192°
2026-04-21 19:29 43.81460 -73.33877 25857 ft 528 kts 192°
2026-04-21 19:30 43.77826 -73.34648 25880 ft 526 kts 192°
2026-04-21 19:30 43.74199 -73.35456 25867 ft 531 kts 192°
2026-04-21 19:30 43.70553 -73.36324 25883 ft 530 kts 194°
2026-04-21 19:30 43.66951 -73.37312 25874 ft 527 kts 194°
2026-04-21 19:31 43.63302 -73.38130 25838 ft 536 kts 191°
2026-04-21 19:31 43.59577 -73.38673 25830 ft 540 kts 188°
2026-04-21 19:31 43.55885 -73.39004 25500 ft 542 kts 187°
2026-04-21 19:31 43.52083 -73.39165 25522 ft 548 kts 186°
2026-04-21 19:32 43.48293 -73.39048 25492 ft 537 kts 178°
2026-04-21 19:32 43.44630 -73.38472 25492 ft 545 kts 178°
2026-04-21 19:32 43.40837 -73.38154 25520 ft 539 kts 182°
2026-04-21 19:32 43.37154 -73.37906 25651 ft 520 kts 180°
2026-04-21 19:33 43.33561 -73.37457 25843 ft 524 kts 181°
2026-04-21 19:33 43.29821 -73.37225 25674 ft 551 kts 182°
2026-04-21 19:33 43.26020 -73.36953 25571 ft 552 kts 180°
2026-04-21 19:33 43.22190 -73.36505 25509 ft 555 kts 180°
2026-04-21 19:34 43.18360 -73.36154 25506 ft 546 kts 181°
2026-04-21 19:34 43.14576 -73.35791 25516 ft 546 kts 180°
2026-04-21 19:34 43.10786 -73.35452 25523 ft 542 kts 181°
2026-04-21 19:34 43.07029 -73.35138 25512 ft 542 kts 181°
2026-04-21 19:35 43.03246 -73.34791 25499 ft 545 kts 182°
2026-04-21 19:35 42.96168 -73.36831 25377 ft 496 kts 208°
2026-04-21 19:35 42.93115 -73.39024 25355 ft 500 kts 218°
2026-04-21 19:36 42.90175 -73.41594 25476 ft 504 kts 220°
2026-04-21 19:36 42.87271 -73.44023 25517 ft 486 kts 216°
2026-04-21 19:36 42.84254 -73.46245 25508 ft 504 kts 215°
2026-04-21 19:36 42.81115 -73.48605 25522 ft 526 kts 216°
2026-04-21 19:37 42.77952 -73.50994 25523 ft 507 kts 216°
2026-04-21 19:37 42.74845 -73.53341 25537 ft 511 kts 216°
2026-04-21 19:37 42.71770 -73.55722 25561 ft 509 kts 217°
2026-04-21 19:37 42.68695 -73.58103 25558 ft 505 kts 216°
2026-04-21 19:38 42.65613 -73.60437 25557 ft 509 kts 216°
2026-04-21 19:38 42.62519 -73.62771 25532 ft 507 kts 215°
2026-04-21 19:38 42.59431 -73.65089 25533 ft 508 kts 215°
2026-04-21 19:38 42.56338 -73.67412 25529 ft 508 kts 216°
2026-04-21 19:39 42.53267 -73.69779 25535 ft 507 kts 216°
2026-04-21 19:39 42.50184 -73.72143 25539 ft 509 kts 216°
2026-04-21 19:39 42.47156 -73.74430 25540 ft 497 kts 216°
2026-04-21 19:39 42.44130 -73.76709 25552 ft 516 kts 215°
2026-04-21 19:40 42.40995 -73.79041 25569 ft 511 kts 215°
2026-04-21 19:40 42.37859 -73.81372 25596 ft 513 kts 215°
2026-04-21 19:40 42.34793 -73.83643 25599 ft 497 kts 215°
2026-04-21 19:40 42.31730 -73.85886 25625 ft 499 kts 215°
2026-04-21 19:41 42.28695 -73.88146 25631 ft 499 kts 216°
2026-04-21 19:41 42.25640 -73.90429 25579 ft 501 kts 215°
2026-04-21 19:41 42.22583 -73.92649 25490 ft 498 kts 215°
2026-04-21 19:41 42.19549 -73.94905 25459 ft 499 kts 216°
2026-04-21 19:42 42.16557 -73.97155 25436 ft 498 kts 216°
2026-04-21 19:42 42.13541 -73.99459 25419 ft 497 kts 217°
2026-04-21 19:42 42.10507 -74.01827 25442 ft 514 kts 217°
2026-04-21 19:42 42.07433 -74.04217 25450 ft 509 kts 216°
2026-04-21 19:43 42.04310 -74.06527 25454 ft 512 kts 214°
2026-04-21 19:43 42.01152 -74.08773 25460 ft 512 kts 214°
2026-04-21 19:43 41.97986 -74.11011 25475 ft 513 kts 214°
2026-04-21 19:43 41.94829 -74.13243 25483 ft 512 kts 214°
2026-04-21 19:44 41.91726 -74.15472 25472 ft 512 kts 215°
2026-04-21 19:44 41.88598 -74.17772 25475 ft 511 kts 215°
2026-04-21 19:44 41.85565 -74.19934 25495 ft 482 kts 214°
2026-04-21 19:44 41.82732 -74.22276 25479 ft 486 kts 220°
2026-04-21 19:45 41.79766 -74.24689 25500 ft 508 kts 216°
2026-04-21 19:45 41.76696 -74.27008 25500 ft 503 kts 217°
2026-04-21 19:45 41.73713 -74.29399 25478 ft 499 kts 217°
2026-04-21 19:45 41.70722 -74.31753 25446 ft 499 kts 217°
2026-04-21 19:46 41.67723 -74.34094 25407 ft 498 kts 218°
2026-04-21 19:46 41.64748 -74.36469 25370 ft 497 kts 217°
2026-04-21 19:46 41.61761 -74.38828 25356 ft 500 kts 217°
2026-04-21 19:46 41.58736 -74.41209 25365 ft 510 kts 217°
2026-04-21 19:47 41.55650 -74.43617 25368 ft 516 kts 217°
2026-04-21 19:47 41.52567 -74.45990 25341 ft 504 kts 217°
2026-04-21 19:47 41.49562 -74.48341 25349 ft 502 kts 217°
2026-04-21 19:47 41.46522 -74.50739 25411 ft 512 kts 217°
2026-04-21 19:48 41.43441 -74.53116 25463 ft 507 kts 216°
2026-04-21 19:48 41.40411 -74.55429 25462 ft 496 kts 217°
2026-04-21 19:48 41.37463 -74.57758 25447 ft 492 kts 218°
2026-04-21 19:48 41.34545 -74.60072 25420 ft 489 kts 218°
2026-04-21 19:49 41.31597 -74.62425 25426 ft 499 kts 218°
2026-04-21 19:49 41.28620 -74.64794 25446 ft 508 kts 217°
2026-04-21 19:49 41.25571 -74.67150 25463 ft 505 kts 217°
2026-04-21 19:49 41.22500 -74.69466 25447 ft 509 kts 216°
2026-04-21 19:50 41.20429 -74.71014 25412 ft 496 kts 217°
2026-04-21 19:50 41.16639 -74.73989 25363 ft 476 kts 218°
2026-04-21 19:50 41.13711 -74.76306 25372 ft 504 kts 217°
2026-04-21 19:50 41.10619 -74.78725 25403 ft 527 kts 216°
2026-04-21 19:51 41.07437 -74.81095 25405 ft 520 kts 215°
2026-04-21 19:51 41.04247 -74.83401 25414 ft 511 kts 216°
2026-04-21 19:51 41.01166 -74.85554 25390 ft 509 kts 211°
2026-04-21 19:51 40.97851 -74.87448 25390 ft 511 kts 208°
2026-04-21 19:52 40.94585 -74.88954 25383 ft 494 kts 201°
2026-04-21 19:52 40.91206 -74.90051 25351 ft 510 kts 198°
2026-04-21 19:52 40.87726 -74.91281 25281 ft 525 kts 203°
2026-04-21 19:52 40.84225 -74.92643 25360 ft 532 kts 200°
2026-04-21 19:53 40.80707 -74.93820 25335 ft 515 kts 201°
2026-04-21 19:53 40.77301 -74.95097 25361 ft 503 kts 202°
2026-04-21 19:53 40.73942 -74.96357 25403 ft 500 kts 201°
2026-04-21 19:53 40.70563 -74.97589 25439 ft 509 kts 201°
2026-04-21 19:54 40.67107 -74.98875 25403 ft 518 kts 201°
2026-04-21 19:54 40.63629 -75.00161 25379 ft 519 kts 201°
2026-04-21 19:54 40.60147 -75.01447 25365 ft 521 kts 201°
2026-04-21 19:54 40.56581 -75.02311 25313 ft 530 kts 180°
2026-04-21 19:55 40.52914 -75.01380 25109 ft 541 kts 163°
2026-04-21 19:55 40.49516 -74.99224 25002 ft 548 kts 147°
2026-04-21 19:55 40.46612 -74.95910 24936 ft 559 kts 127°
2026-04-21 19:55 40.44578 -74.91555 25019 ft 563 kts 114°
2026-04-21 19:56 40.42743 -74.86990 25197 ft 562 kts 115°
2026-04-21 19:56 40.40893 -74.82571 25323 ft 545 kts 118°
2026-04-21 19:56 40.38885 -74.78421 25340 ft 533 kts 121°
2026-04-21 19:56 40.36825 -74.74435 25352 ft 522 kts 123°
2026-04-21 19:57 40.34609 -74.70725 25330 ft 512 kts 131°
2026-04-21 19:57 40.32157 -74.67381 25302 ft 528 kts 134°
2026-04-21 19:57 40.29566 -74.63674 25279 ft 570 kts 127°
2026-04-21 19:57 40.26989 -74.59605 25239 ft 587 kts 130°
2026-04-21 19:58 40.24305 -74.55712 25320 ft 552 kts 130°
2026-04-21 19:58 40.21867 -74.52026 25340 ft 528 kts 129°
2026-04-21 19:58 40.19466 -74.48327 25374 ft 539 kts 128°
2026-04-21 19:58 40.17386 -74.44233 25252 ft 546 kts 117°
2026-04-21 19:59 40.15476 -74.39890 25260 ft 551 kts 117°
2026-04-21 19:59 40.13392 -74.35723 25328 ft 540 kts 122°
2026-04-21 19:59 40.11372 -74.31692 25360 ft 521 kts 119°
2026-04-21 19:59 40.09383 -74.27673 25394 ft 534 kts 121°
2026-04-21 20:00 40.07217 -74.23634 25276 ft 554 kts 130°
2026-04-21 20:00 40.04190 -74.20468 25137 ft 559 kts 152°
2026-04-21 20:00 40.00685 -74.18694 25090 ft 528 kts 172°
2026-04-21 20:00 39.97071 -74.18356 25107 ft 521 kts 189°
2026-04-21 20:01 39.93518 -74.19422 25093 ft 525 kts 208°
2026-04-21 20:01 39.90542 -74.21773 25128 ft 484 kts 229°
2026-04-21 20:01 39.88403 -74.25075 25103 ft 476 kts 246°
2026-04-21 20:01 39.86836 -74.28866 25238 ft 467 kts 251°
2026-04-21 20:02 39.85927 -74.31385 25270 ft 465 kts 252°
2026-04-21 20:02 39.83709 -74.36306 25152 ft 479 kts 239°
2026-04-21 20:02 39.81538 -74.39642 25159 ft 483 kts 233°
2026-04-21 20:02 39.79122 -74.42676 25236 ft 493 kts 229°
2026-04-21 20:03 39.76524 -74.45638 25311 ft 501 kts 227°
2026-04-21 20:03 39.73885 -74.48540 25318 ft 489 kts 226°
2026-04-21 20:03 39.71262 -74.51309 25291 ft 490 kts 225°
2026-04-21 20:03 39.68546 -74.54023 25264 ft 493 kts 219°
2026-04-21 20:04 39.65576 -74.56332 25160 ft 500 kts 216°
2026-04-21 20:04 39.62666 -74.58749 25234 ft 494 kts 220°
2026-04-21 20:04 39.59812 -74.61243 25308 ft 495 kts 220°
2026-04-21 20:04 39.56875 -74.63689 25325 ft 512 kts 219°
2026-04-21 20:05 39.53822 -74.66272 25372 ft 535 kts 219°
2026-04-21 20:05 39.50808 -74.68822 25311 ft 502 kts 219°
2026-04-21 20:05 39.47859 -74.71291 25304 ft 505 kts 219°
2026-04-21 20:05 39.44999 -74.73720 25288 ft 489 kts 219°
2026-04-21 20:06 39.42174 -74.76125 25294 ft 496 kts 219°
2026-04-21 20:06 39.39189 -74.78622 25315 ft 504 kts 218°
2026-04-21 20:06 39.36312 -74.81042 25334 ft 491 kts 219°
2026-04-21 20:06 39.33422 -74.83495 25370 ft 501 kts 219°
2026-04-21 20:07 39.30467 -74.85998 25322 ft 514 kts 219°
2026-04-21 20:07 39.27486 -74.88459 25316 ft 498 kts 219°
2026-04-21 20:07 39.25592 -74.90055 25299 ft 485 kts 220°
2026-04-21 20:07 39.21776 -74.93278 25301 ft 504 kts 219°
2026-04-21 20:08 39.18775 -74.95818 25334 ft 528 kts 219°
2026-04-21 20:08 39.15800 -74.98306 25329 ft 481 kts 219°
2026-04-21 20:08 39.13046 -75.00559 25266 ft 471 kts 220°
2026-04-21 20:08 39.10250 -75.02952 25195 ft 495 kts 220°
2026-04-21 20:09 39.07341 -75.05438 25128 ft 505 kts 219°
2026-04-21 20:09 39.04352 -75.07961 25111 ft 524 kts 218°
2026-04-21 20:09 39.01267 -75.10531 25181 ft 520 kts 218°
2026-04-21 20:09 38.98279 -75.12958 25208 ft 505 kts 218°
2026-04-21 20:10 38.95310 -75.15360 25253 ft 501 kts 218°
2026-04-21 20:10 38.92397 -75.17729 25286 ft 506 kts 218°
2026-04-21 20:10 38.89422 -75.20128 25326 ft 494 kts 219°
2026-04-21 20:10 38.86529 -75.22553 25346 ft 498 kts 219°
2026-04-21 20:11 38.83603 -75.24980 25321 ft 503 kts 218°
2026-04-21 20:11 38.80662 -75.27400 25311 ft 500 kts 218°
2026-04-21 20:11 38.77655 -75.29693 25293 ft 505 kts 215°
2026-04-21 20:11 38.74551 -75.31837 25254 ft 509 kts 209°
2026-04-21 20:12 38.71195 -75.33519 25294 ft 518 kts 205°
2026-04-21 20:12 38.67888 -75.35179 25274 ft 506 kts 209°
2026-04-21 20:12 38.65753 -75.36404 25331 ft 510 kts 209°
2026-04-21 20:12 38.62511 -75.38154 25328 ft 508 kts 207°
2026-04-21 20:13 38.59211 -75.39869 25329 ft 504 kts 208°
2026-04-21 20:13 38.56037 -75.41642 25329 ft 496 kts 208°
2026-04-21 20:13 38.52811 -75.43382 25287 ft 511 kts 207°
2026-04-21 20:13 38.49479 -75.45158 25272 ft 523 kts 207°
2026-04-21 20:14 38.46247 -75.46854 25247 ft 489 kts 208°
2026-04-21 20:14 38.43078 -75.48574 25216 ft 502 kts 208°
2026-04-21 20:14 38.39794 -75.50332 25231 ft 523 kts 207°
2026-04-21 20:14 38.36399 -75.52087 25272 ft 514 kts 206°
2026-04-21 20:15 38.33122 -75.53784 25278 ft 505 kts 211°
2026-04-21 20:15 38.29954 -75.55797 25298 ft 511 kts 211°
2026-04-21 20:15 38.26722 -75.57644 25270 ft 507 kts 209°
2026-04-21 20:15 38.23564 -75.59504 25278 ft 496 kts 211°
2026-04-21 20:16 38.20493 -75.61390 25299 ft 496 kts 210°
2026-04-21 20:16 38.17371 -75.63210 25282 ft 490 kts 210°
2026-04-21 20:16 38.14298 -75.65023 25244 ft 486 kts 210°
2026-04-21 20:16 38.11247 -75.66830 25204 ft 481 kts 210°
2026-04-21 20:17 38.08216 -75.68623 25148 ft 484 kts 210°
2026-04-21 20:17 38.05056 -75.70493 25088 ft 521 kts 210°
2026-04-21 20:17 38.01645 -75.72513 24798 ft 563 kts 209°
2026-04-21 20:17 37.98005 -75.74562 24076 ft 567 kts 209°
2026-04-21 20:18 37.94647 -75.76603 23615 ft 504 kts 210°
2026-04-21 20:18 37.91638 -75.78385 23434 ft 452 kts 210°
2026-04-21 20:18 37.88905 -75.79962 23187 ft 412 kts 210°
2026-04-21 20:18 37.86397 -75.81373 22939 ft 377 kts 210°
2026-04-21 20:19 37.84015 -75.82688 21954 ft 394 kts 210°
2026-04-21 20:19 37.81295 -75.84259 20420 ft 471 kts 210°
2026-04-21 20:19 37.78114 -75.86168 19284 ft 503 kts 209°
2026-04-21 20:19 37.74911 -75.88074 18304 ft 517 kts 209°
2026-04-21 20:20 37.71619 -75.90026 17259 ft 530 kts 209°
2026-04-21 20:20 37.68231 -75.92023 16273 ft 534 kts 208°
2026-04-21 20:20 37.64897 -75.93967 15588 ft 513 kts 207°
2026-04-21 20:20 37.61585 -75.95493 14954 ft 500 kts 200°
2026-04-21 20:21 37.58201 -75.96620 14291 ft 510 kts 195°
2026-04-21 20:21 37.54628 -75.97358 13428 ft 524 kts 187°
2026-04-21 20:21 37.51111 -75.97616 12603 ft 463 kts 186°
2026-04-21 20:21 37.47961 -75.98080 12274 ft 451 kts 190°
2026-04-21 20:22 37.44827 -75.98513 12128 ft 471 kts 188°
2026-04-21 20:22 37.38427 -75.99297 12007 ft 377 kts 189°
2026-04-21 20:22 37.35761 -75.99657 11883 ft 403 kts 190°
2026-04-21 20:23 37.32665 -75.99970 11817 ft 494 kts 183°
2026-04-21 20:23 37.29294 -75.99875 11446 ft 438 kts 181°
2026-04-21 20:23 37.26309 -75.99937 10766 ft 434 kts 184°
2026-04-21 20:23 37.23229 -76.00019 10019 ft 431 kts 182°
2026-04-21 20:24 37.20250 -76.00129 9173 ft 425 kts 192°
2026-04-21 20:24 37.17539 -76.01396 8432 ft 411 kts 216°
2026-04-21 20:24 37.15228 -76.03470 8201 ft 403 kts 222°
2026-04-21 20:24 37.13042 -76.05659 8156 ft 410 kts 223°
2026-04-21 20:25 37.10827 -76.07912 8157 ft 396 kts 223°
2026-04-21 20:25 37.08667 -76.10120 8165 ft 415 kts 222°
2026-04-21 20:25 37.06476 -76.12328 8160 ft 392 kts 223°
2026-04-21 20:25 37.04309 -76.14487 8160 ft 413 kts 220°
2026-04-21 20:26 37.01957 -76.16433 7945 ft 409 kts 214°
2026-04-21 20:26 36.99562 -76.18213 7192 ft 394 kts 215°
2026-04-21 20:26 36.97286 -76.20086 6453 ft 388 kts 217°
2026-04-21 20:26 36.95084 -76.21888 5687 ft 367 kts 215°
2026-04-21 20:27 36.92890 -76.23590 5095 ft 368 kts 215°
2026-04-21 20:27 36.90906 -76.25540 4818 ft 371 kts 222°
2026-04-21 20:27 36.89018 -76.27585 4641 ft 360 kts 221°
2026-04-21 20:27 36.86953 -76.29397 3804 ft 358 kts 207°
2026-04-21 20:28 36.84601 -76.30309 2967 ft 353 kts 186°
2026-04-21 20:28 36.82179 -76.30272 2550 ft 362 kts 171°
2026-04-21 20:28 36.79788 -76.29413 2411 ft 347 kts 157°
2026-04-21 20:28 36.77641 -76.27887 2351 ft 353 kts 144°
2026-04-21 20:29 36.75840 -76.25796 2335 ft 353 kts 129°
2026-04-21 20:29 36.74591 -76.23144 2366 ft 355 kts 112°
2026-04-21 20:29 36.74066 -76.20126 2369 ft 356 kts 95°
2026-04-21 20:29 36.74030 -76.17040 2409 ft 356 kts 85°
2026-04-21 20:30 36.74534 -76.14043 2384 ft 355 kts 71°
2026-04-21 20:30 36.75607 -76.11252 2399 ft 356 kts 58°
2026-04-21 20:30 36.77110 -76.08796 2346 ft 353 kts 45°
2026-04-21 20:30 36.78940 -76.06690 2391 ft 357 kts 41°
2026-04-21 20:31 36.80801 -76.04632 2430 ft 356 kts 40°
2026-04-21 20:31 36.82735 -76.03080 2415 ft 299 kts 342°
2026-04-21 20:31 36.83451 -76.04822 2392 ft 224 kts 262°
2026-04-21 20:31 36.82944 -76.06566 2092 ft 207 kts 239°
2026-04-21 20:32 36.82148 -76.07999 1787 ft 194 kts 234°
2026-04-21 20:32 36.81263 -76.09216 1512 ft 184 kts 218°
2026-04-21 20:32 36.80077 -76.09690 1200 ft 196 kts 172°
2026-04-21 20:32 36.78886 -76.08874 1131 ft 192 kts 125°
2026-04-21 20:33 36.78718 -76.07377 747 ft 182 kts 67°
2026-04-21 20:33 36.79519 -76.06172 364 ft 172 kts 47°
2026-04-21 20:33 36.80306 -76.05277 110 ft 139 kts 46°
2026-04-21 20:33 36.80988 -76.04507 27 ft 121 kts 46°
2026-04-21 20:34 36.81471 -76.03973 23 ft 76 kts 41°
2026-04-21 20:34 36.81802 -76.03580 28 ft 57 kts 45°
2026-04-21 20:34 36.82093 -76.03245 26 ft 59 kts 44°
2026-04-21 20:34 36.82340 -76.02969 24 ft 25 kts 40°
2026-04-21 20:35 36.82362 -76.02866 26 ft 6 kts 126°
2026-04-21 20:35 36.82346 -76.02842 24 ft 10 kts 132°
2026-04-21 20:35 36.82300 -76.02810 24 ft 16 kts 192°
2026-04-21 20:35 36.82179 -76.02934 21 ft 27 kts 221°
2026-04-21 20:36 36.82049 -76.03082 23 ft 28 kts 221°
2026-04-21 20:36 36.81945 -76.03171 25 ft 9 kts 165°
2026-04-21 20:36 36.81923 -76.03100 26 ft 13 kts 89°
2026-04-21 20:36 36.81926 -76.02931 26 ft 23 kts 90°
2026-04-21 20:37 36.81929 -76.02752 27 ft 14 kts 88°
2026-04-21 20:37 36.81920 -76.02689 27 ft 5 kts 186°
2026-04-21 20:37 36.81884 -76.02665 28 ft 4 kts 129°
2026-04-21 20:37 36.81871 -76.02648 28 ft 0 kts 135°